Tracking 25953 objects as of 15-Aug-2022
HD Live streaming from Space Station
objects crossing your sky now

OPS 7613 (P/L 1)

Track OPS 7613 (P/L 1) now!
10-day predictions
OPS 7613 (P/L 1) is classified as:


NORAD ID: 4256
Int'l Code: 1969-082B
Perigee: 893.9 km
Apogee: 918.6 km
Inclination: 70.0 °
Period: 103.0 minutes
Semi major axis: 7277 km
RCS: 0.5333 m2 (medium)
Launch date: September 30, 1969
Source: United States (US)
Launch site: AIR FORCE WESTERN TEST RANGE (AFWTR)
aabbcc
Your satellite tracking list
Your tracking list is empty




NASA's NSSDC Master Catalog

Two Line Element Set (TLE):
1 04256U 69082B   22227.05817328  .00000075  00000-0  89339-4 0  9999
2 04256  70.0096  95.2644 0016962 101.2253 259.0762 13.98470489694383
Source of the keplerian elements: AFSPC